Flag for Brazil Weather past 2 weeks in Porto Velho, Rondônia, Brazil

Now
79 °F

Sunny.


Feels Like: 82 °F
Forecast: 71 / 93 °F
Wind: 2 mph from Southwest

Location: Porto Velho Aeroporto

Current Time: Jul 31, 2014 at 10:08:03 AM

Latest Report: Jul 31, 2014 at 9:00 AM


Visibility: 10 mi

Pressure: 29.98 "Hg

Humidity: 84%

Dew point: 73 °F

Location of Porto VelhoLocation

Historic Weather in Porto Velho — Graph

°F

Porto Velho temperature yesterday

Maximum temperature yesterday: 91 °F (at 5:00 PM)
Minimum temperature yesterday: 72 °F (at 7:00 AM)
Average temperature yesterday: 80 °F

Past Weeks' High & Low Weather Summary

 TemperatureHumidityPressure
High93 °F (Jul 16, 2:00 PM)89% (Jul 17, 3:00 AM)30.12 "Hg (Jul 17, 3:00 AM)
Low66 °F (Jul 25, 10:00 AM)46% (Jul 30, 5:00 PM)29.80 "Hg (Jul 23, 5:00 PM)
Average77 °F78%29.96 "Hg
* Reported Jul 16 9:00 AM — Jul 31 9:00 AM, Porto Velho, Weather by CustomWeather, © 2014

Note: Actual official high and low records may vary slightly from our data, if they occured in-between our weather recording intervals... More about our weather records

Advertising

Porto Velho weather history for previous 24 hours

 ConditionsComfort  
Time TempWeatherWind HumidityBarometerVisibility
9:00 AM
Jul 31
79 °FSunny.2 mph84%29.98 "Hg10 mi
8:00 AM75 °FSunny.2 mph89%29.95 "Hg10 mi
7:00 AM73 °FSunny.No wind89%29.95 "Hg10 mi
6:00 AM73 °FClear.No wind83%29.92 "Hg10 mi
5:00 AM73 °FClear.No wind89%29.89 "Hg10 mi
4:00 AM73 °FClear.No wind83%29.89 "Hg10 mi
3:00 AM73 °FClear.No wind83%29.89 "Hg10 mi
2:00 AM73 °FClear.No wind78%29.92 "Hg10 mi
1:00 AM73 °FClear.No wind78%29.92 "Hg10 mi
12:00 AM73 °FClear.No wind78%29.95 "Hg10 mi
11:00 PM
Jul 30
73 °FClear.No wind78%29.95 "Hg10 mi
10:00 PM75 °FClear.No wind74%29.95 "Hg10 mi
9:00 PM75 °FClear.No wind69%29.92 "Hg10 mi
8:00 PM79 °FClear.2 mph65%29.92 "Hg10 mi
7:00 PM81 °FClear.No wind58%29.92 "Hg10 mi
6:00 PM88 °FPassing clouds.2 mph46%29.92 "HgN/A
5:00 PM91 °FPassing clouds.6 mph46%29.92 "HgN/A
4:00 PM90 °FScattered clouds.6 mph55%29.92 "HgN/A
3:00 PM90 °FScattered clouds.3 mph59%29.92 "HgN/A
2:00 PM88 °FScattered clouds.No wind66%29.95 "HgN/A
1:00 PM88 °FScattered clouds.5 mph70%29.98 "HgN/A
12:00 PM88 °FScattered clouds.3 mph75%30.01 "HgN/A
11:00 AM84 °FSunny.No wind79%30.04 "Hg10 mi
10:00 AM82 °FSunny.No wind84%30.04 "Hg10 mi
Weather by CustomWeather, © 2014

See weather overviewHow to use our weather pages